Torna al catalogo

STARLINK-4133

AttivoComunicazioniVLEO
NORAD 53253·PAYLOAD·🇺🇸 United States

Lanciato Jul 24, 2022 da Cape Canaveral Space Force Station

Loading…

Prossimi Passaggi (prossime 24 ore)

TLE

AggiornatoSource: CelesTrak SupGP

Epoca: Sep 14, 2026, 14:26 UTC

1 53253C 22086M   26257.60187500  .00481390  00000+0  14758-1 0  2572
2 53253  53.1598  52.8953 0001167  83.3384 165.6601 15.32982859    15

Traccia STARLINK-4133 in tempo reale con AllMySat

Download on the App Store